"2010-04-27 00:00:00",60940,6.772,58.46,9.62,1.4,8.48,102.4797,5.628,6.765,46.31,0,110.1,13.38,6.40,20.5
"2010-04-27 00:00:30",60941,5.733,50.81,3.941,0.791,5.693,102.4777,5.623,6.636,46.29,0,110.1,13.42,6.39,12.8
"2010-04-27 00:01:00",60942,7.554,60.58,9.22,1.132,8.3,102.4749,5.616,6.822,46.84,0,110.1,13.38,6.39,22.6
"2010-04-27 00:01:30",60943,6.756,51.45,7.627,1.152,9.08,102.4729,5.611,6.871,46.9,0,110.1,13.39,6.38,13.5
"2010-04-27 00:02:00",60944,9.4,58.43,4.905,0.911,10.91,102.4732,5.612,6.954,46.96,0,110.1,13.39,6.38,20.4
"2010-04-27 00:02:30",60945,8.5,57.68,5.444,1.262,9.94,102.4729,5.611,6.891,46.83,0,110.1,13.39,6.38,19.7
"2010-04-27 00:03:00",60946,8.41,56.88,5.724,1.159,9.75,102.4729,5.611,6.834,46.51,0,110.1,13.39,6.38,18.9
"2010-04-27 00:03:30",60947,8.05,52.52,8.27,1.644,8.27,102.4729,5.611,6.742,46.74,0,110.1,13.39,6.38,14.5
"2010-04-27 00:04:00",60948,10.02,57.88,6.26,1.203,9.42,102.4729,5.611,6.864,47.45,0,110.1,13.39,6.38,19.9
"2010-04-27 00:04:30",60949,10.44,62.6,5.568,0.977,10.08,102.4729,5.611,6.842,47.73,0,110.1,13.39,6.38,24.6
"2010-04-27 00:05:00",60950,11.18,63.53,6.07,0.842,11.11,102.467,5.596,6.94,48.02,0,110.1,13.39,6.37,25.5
"2010-04-27 00:05:30",60951,10.39,60.31,4.561,0.75,11.09,102.4449,5.54,6.929,47.72,0,110.1,13.39,6.31,22.3
"2010-04-27 00:06:00",60952,9.79,52.97,5.237,0.738,10.76,102.439,5.524,6.926,48.1,0,110.1,13.39,6.30,15.0
"2010-04-27 00:06:30",60953,9.33,56.49,4.868,0.911,10.34,102.439,5.524,6.932,49.49,0,110.1,13.39,6.30,18.5
"2010-04-27 00:07:00",60954,9.47,59.53,6.142,1.454,8.99,102.439,5.524,6.771,49.22,0,110.1,13.39,6.30,21.5
"2010-04-27 00:07:30",60955,7.716,50.24,3.348,0.437,5.676,102.4356,5.516,6.574,48.17,0,110.1,13.42,6.29,12.2
"2010-04-27 00:08:00",60956,9.27,58.08,8.38,1.194,8.15,102.4263,5.492,6.716,47.61,0,110,13.39,6.26,20.1
"2010-04-27 00:08:30",60957,10.55,62.96,4.692,0.742,10.79,102.4088,5.447,6.803,47.28,0,110,13.39,6.22,25.0
"2010-04-27 00:09:00",60958,9.84,63.56,5.21,0.667,11.21,102.4063,5.441,6.849,47.07,0,110,13.39,6.21,25.6
"2010-04-27 00:09:30",60959,9.28,67.77,3.791,0.786,11.14,102.4066,5.442,6.846,46.95,0,110,13.39,6.21,29.8
"2010-04-27 00:10:00",60960,8.71,66.22,5.545,0.784,10.61,102.4089,5.447,6.821,47.19,0,110,13.39,6.22,28.2
"2010-04-27 00:10:30",60961,7.663,56.64,8.17,1.48,8.88,102.411,5.453,6.779,47.83,0,110,13.39,6.22,18.6
"2010-04-27 00:11:00",60962,6.574,56.4,5.478,1.078,7.218,102.4062,5.441,6.509,47.83,0,110,13.39,6.21,18.4
"2010-04-27 00:11:30",60963,6.715,54.33,7.32,1.379,6.689,102.3961,5.415,6.564,47.92,0,110,13.39,6.19,16.3
"2010-04-27 00:12:00",60964,9.04,60.59,7.963,1.187,9.45,102.3898,5.399,6.631,47.71,0,110,13.39,6.17,22.6
"2010-04-27 00:12:30",60965,8.75,58.15,5.797,0.839,11.14,102.3938,5.409,6.794,47.27,0,110,13.39,6.18,20.2
"2010-04-27 00:13:00",60966,8.55,55.41,5.104,0.837,10.95,102.3973,5.418,6.757,47.08,0,110,13.4,6.19,17.4
"2010-04-27 00:13:30",60967,9.04,62.77,4.557,0.787,10.9,102.3996,5.424,6.776,47.11,0,110,13.4,6.19,24.8
"2010-04-27 00:14:00",60968,9.45,62.13,4.211,0.546,10.15,102.4025,5.431,6.76,48.28,0,110,13.4,6.20,24.1
"2010-04-27 00:14:30",60969,8.96,63.64,4.808,0.367,10.07,102.4028,5.432,6.647,47.69,0,110,13.4,6.20,25.6
"2010-04-27 00:15:00",60970,6.084,51.29,2.15,0.219,5.607,102.4057,5.439,6.434,47.05,0,110,13.4,6.21,13.3
"2010-04-27 00:15:30",60971,6.99,54.29,7.954,1.259,7.489,102.404,5.435,6.58,47.03,0,110,13.4,6.21,16.3
"2010-04-27 00:16:00",60972,7.573,61.64,6.329,1.112,9.48,102.4031,5.433,6.609,46.97,0,110.1,13.4,6.20,23.6
"2010-04-27 00:16:30",60973,8.33,62.06,5.054,0.722,11.02,102.4,5.425,6.733,47.18,0,110,13.4,6.20,24.1
"2010-04-27 00:17:00",60974,8.23,57.52,3.669,0.853,10.8,102.3986,5.421,6.742,47.04,0,110,13.4,6.19,19.5
"2010-04-27 00:17:30",60975,8.39,59.21,5.048,0.849,10.14,102.3969,5.417,6.662,47.9,0,110,13.4,6.19,21.2
"2010-04-27 00:18:00",60976,6.648,49.69,2.826,0.176,5.813,102.3978,5.419,6.418,48.83,0,110,13.44,6.19,11.7
"2010-04-27 00:18:30",60977,7.68,50.8,6.632,1.228,7.806,102.3978,5.419,6.472,48.58,0,110,13.4,6.19,12.8
"2010-04-27 00:19:00",60978,7.365,55.09,7.488,1.149,8.62,102.3969,5.417,6.589,48.05,0,110,13.41,6.19,17.1
"2010-04-27 00:19:30",60979,8.03,62.06,4.774,1.011,10.35,102.3927,5.406,6.69,47.95,0,110,13.41,6.18,24.1
"2010-04-27 00:20:00",60980,8.87,59,5.363,0.648,10.77,102.3916,5.403,6.736,47.86,0,110,13.41,6.17,21.0
"2010-04-27 00:20:30",60981,8.58,53.37,5.788,1.111,9.48,102.3938,5.409,6.664,48.3,0,110,13.41,6.18,15.4
"2010-04-27 00:21:00",60982,9.08,51.94,6.402,1.054,8.8,102.3933,5.407,6.494,47.7,0,110,13.41,6.18,13.9
"2010-04-27 00:21:30",60983,7.314,45.52,4.75,0.812,6.78,102.3949,5.412,6.541,48.26,0,110,13.41,6.18,7.5
"2010-04-27 00:22:00",60984,8.68,53.47,6.018,1.069,9.57,102.3966,5.416,6.664,48.25,0,110,13.41,6.19,15.5
"2010-04-27 00:22:30",60985,8.74,56.85,5.224,0.892,10.29,102.3995,5.423,6.661,48.33,0,110,13.41,6.19,18.8
"2010-04-27 00:23:00",60986,8.72,57.35,5.693,0.877,10.05,102.4006,5.426,6.652,48.03,0,110,13.41,6.20,19.3
"2010-04-27 00:23:30",60987,8.14,51.91,6.988,1.356,8.73,102.4034,5.433,6.611,48.21,0,110,13.41,6.20,13.9
"2010-04-27 00:24:00",60988,7.995,50.63,6.238,1.286,8.43,102.4051,5.438,6.664,48.09,0,110,13.41,6.21,12.6
"2010-04-27 00:24:30",60989,8.01,54.08,5.053,1.211,9.4,102.406,5.44,6.614,47.66,0,110,13.4,6.21,16.1
"2010-04-27 00:25:00",60990,7.995,53.75,6.131,1.315,9.12,102.406,5.44,6.671,47.55,0,110,13.4,6.21,15.8
"2010-04-27 00:25:30",60991,8.15,54.44,6.611,1.262,9.33,102.406,5.44,6.661,48.44,0,110,13.4,6.21,16.4
"2010-04-27 00:26:00",60992,7.597,52.43,7.085,1.186,8.91,102.406,5.44,6.599,49.38,0,110,13.4,6.21,14.4
"2010-04-27 00:26:30",60993,8.44,53.16,5.808,1.502,9.29,102.406,5.44,6.616,49.64,0,110,13.4,6.21,15.2
"2010-04-27 00:27:00",60994,7.828,50.72,6.507,1.226,8.06,102.406,5.44,6.622,49.42,0,110,13.4,6.21,12.7
"2010-04-27 00:27:30",60995,7.782,54.81,5.901,1.143,9.46,102.4074,5.444,6.678,49.17,0,110,13.4,6.21,16.8
"2010-04-27 00:28:00",60996,8.27,54.08,6.805,1.22,8.96,102.4175,5.47,6.661,48.4,0,110,13.4,6.24,16.1
"2010-04-27 00:28:30",60997,8.4,53.09,6.111,1.324,8.73,102.4271,5.494,6.693,47.67,0,110,13.4,6.27,15.1
"2010-04-27 00:29:00",60998,8.56,53.47,6.994,1.2,9.23,102.4373,5.52,6.672,47.32,0,110,13.4,6.29,15.5
"2010-04-27 00:29:30",60999,7.917,53.49,6.108,1.178,8.67,102.4398,5.526,6.721,47.12,0,110,13.41,6.30,15.5
"2010-04-27 00:30:00",61000,8.54,57.52,6.273,1.017,9.38,102.4398,5.526,6.693,47.16,0,110,13.41,6.30,19.5
"2010-04-27 00:30:30",61001,8.16,51.41,5.88,1.209,8.72,102.4398,5.526,6.731,47.44,0,110,13.41,6.30,13.4
"2010-04-27 00:31:00",61002,9.31,54.06,5.186,1.173,9.57,102.4424,5.533,6.764,47.27,0,110,13.41,6.30,16.1
"2010-04-27 00:31:30",61003,8.59,51.75,6.43,1.299,8.8,102.4591,5.576,6.711,47.14,0,110,13.41,6.35,13.8
"2010-04-27 00:32:00",61004,9.28,52.7,6.754,1.142,9.7,102.4692,5.602,6.789,47.64,0,110,13.41,6.37,14.7
"2010-04-27 00:32:30",61005,8.56,52.92,5.701,1.168,9.73,102.4737,5.613,6.757,48.35,0,110,13.41,6.38,14.9
"2010-04-27 00:33:00",61006,9.93,58.58,3.519,0.744,10.17,102.4737,5.613,6.837,48.42,0,110,13.41,6.38,20.6
"2010-04-27 00:33:30",61007,8.77,53.2,6.447,1.314,8.34,102.474,5.614,6.796,48.42,0,110,13.41,6.39,15.2
"2010-04-27 00:34:00",61008,9.29,56.28,6.324,1.233,9.56,102.474,5.614,6.865,48.07,0,110,13.41,6.39,18.3
"2010-04-27 00:34:30",61009,8.01,50.87,6.269,1.273,7.878,102.4752,5.617,6.772,47.43,0,110,13.41,6.39,12.9
"2010-04-27 00:35:00",61010,9.13,56.03,6.565,0.995,9.72,102.4862,5.645,6.873,48.39,0,110,13.41,6.42,18.0
"2010-04-27 00:35:30",61011,8,56.89,7.113,1.079,9.02,102.4989,5.677,6.852,48.42,0,110,13.41,6.45,18.9
"2010-04-27 00:36:00",61012,7.919,61.88,7.957,1.297,9.42,102.5034,5.689,6.918,48.88,0,110,13.41,6.46,23.9
"2010-04-27 00:36:30",61013,8.13,56.48,7.334,1.142,8.25,102.5082,5.701,6.82,48.19,0,110,13.41,6.47,18.5
"2010-04-27 00:37:00",61014,7.453,50.73,4.777,1.069,6.861,102.5111,5.708,6.754,47.25,0,110,13.41,6.48,12.7
"2010-04-27 00:37:30",61015,8,53.57,6.988,1.302,8.79,102.5102,5.706,6.916,47.25,0,110,13.41,6.48,15.6
"2010-04-27 00:38:00",61016,8.61,56.89,5.283,1.088,10.1,102.5091,5.703,6.925,47.32,0,110,13.41,6.48,18.9
"2010-04-27 00:38:30",61017,8.6,52.36,6.094,1.155,9.47,102.5096,5.705,6.921,47.1,0,110,13.41,6.48,14.4
"2010-04-27 00:39:00",61018,8.78,56.39,5.962,1.017,9.59,102.5117,5.71,6.931,47.54,0,110,13.41,6.48,18.4
"2010-04-27 00:39:30",61019,7.864,54.39,5.54,1.207,8.57,102.5094,5.704,6.824,47.54,0,110,13.41,6.48,16.4
"2010-04-27 00:40:00",61020,7.231,50.28,7.168,1.175,8.02,102.5096,5.705,6.925,47.14,0,110,13.41,6.48,12.3
"2010-04-27 00:40:30",61021,8.65,53.71,6.176,1.308,9.37,102.5114,5.709,6.875,47.31,0,110,13.41,6.48,15.7
"2010-04-27 00:41:00",61022,8.27,52.01,6.539,1.263,9.4,102.512,5.711,6.917,47.62,0,110,13.41,6.48,14.0
"2010-04-27 00:41:30",61023,9.04,56.82,4.284,0.65,10.66,102.5108,5.708,6.991,47.71,0,110,13.41,6.48,18.8
"2010-04-27 00:42:00",61024,8.69,56.54,5.232,1.15,9.76,102.5117,5.71,6.989,47.87,0,110,13.4,6.48,18.5
"2010-04-27 00:42:30",61025,8.8,53.24,5.973,1.128,9.07,102.5102,5.706,6.952,48.09,0,110,13.4,6.48,15.2
"2010-04-27 00:43:00",61026,8.62,51.31,7.11,1.255,8.89,102.5117,5.71,6.949,48.33,0,110,13.4,6.48,13.3
"2010-04-27 00:43:30",61027,9,52.82,7.055,1.208,9.22,102.5125,5.712,6.96,47.76,0,110,13.4,6.48,14.8
"2010-04-27 00:44:00",61028,8.77,51.12,7.46,1.244,10.14,102.5108,5.708,7.029,48.41,0,109.9,13.4,6.48,13.1
"2010-04-27 00:44:30",61029,8.6,58.67,6.724,1.086,9.47,102.5131,5.714,6.954,48.47,0,110,13.4,6.49,20.7
"2010-04-27 00:45:00",61030,8.28,63.77,5.204,1.023,9.76,102.5134,5.714,6.923,48.39,0,110,13.4,6.49,25.8
"2010-04-27 00:45:30",61031,7.264,58.91,4.986,1.371,8.28,102.5143,5.717,6.868,48.07,0,110,13.41,6.49,20.9
"2010-04-27 00:46:00",61032,8.14,58.3,5.554,1.372,8.53,102.5166,5.723,6.844,47.48,0,110,13.41,6.49,20.3
"2010-04-27 00:46:30",61033,8.39,57.93,6.355,1.27,9.58,102.5152,5.719,6.938,47.38,0,110,13.41,6.49,19.9
"2010-04-27 00:47:00",61034,9.08,56.02,6.225,1.016,10.05,102.5169,5.723,6.923,47.28,0,110,13.41,6.50,18.0
"2010-04-27 00:47:30",61035,8.16,56.34,6.891,1.061,9.72,102.5149,5.718,7.006,47.39,0,110,13.41,6.49,18.3
"2010-04-27 00:48:00",61036,8.03,54.4,5.848,1.269,8.78,102.5144,5.717,6.824,47.23,0,110,13.41,6.49,16.4
"2010-04-27 00:48:30",61037,7.82,54.97,6.82,1.578,8.71,102.5144,5.717,6.893,47.07,0,110,13.41,6.49,17.0
"2010-04-27 00:49:00",61038,7.829,53.83,8.11,1.058,8.4,102.5138,5.715,6.839,47.09,0,110,13.41,6.49,15.8
"2010-04-27 00:49:30",61039,8.24,57.81,6.111,1.134,9.87,102.5144,5.717,6.969,47.36,0,110,13.41,6.49,19.8
"2010-04-27 00:50:00",61040,8.4,58.05,6.04,1.126,10.09,102.5161,5.721,6.931,47.66,0,110,13.41,6.49,20.0
"2010-04-27 00:50:30",61041,7.853,53.58,7.275,1.24,9.15,102.517,5.723,7.018,47.94,0,110,13.41,6.50,15.6
"2010-04-27 00:51:00",61042,7.63,54.81,5.608,1.411,8.54,102.5181,5.726,6.888,48.2,0,110,13.41,6.50,16.8
"2010-04-27 00:51:30",61043,7.974,54.34,6.318,1.161,9.27,102.5195,5.73,6.891,48.31,0,110,13.41,6.50,16.3
"2010-04-27 00:52:00",61044,7.512,52.62,7.229,1.385,9.07,102.5218,5.736,6.951,48.44,0,110,13.41,6.51,14.6
"2010-04-27 00:52:30",61045,8.33,56.02,4.895,1.017,10.06,102.523,5.739,6.975,47.98,0,110,13.41,6.51,18.0
"2010-04-27 00:53:00",61046,7.69,52.1,6.847,1.188,9.07,102.5224,5.737,6.96,47.85,0,110,13.41,6.51,14.1
"2010-04-27 00:53:30",61047,8.42,51.96,6.682,1.178,9.57,102.5218,5.736,6.994,47.88,0,110,13.41,6.51,14.0
"2010-04-27 00:54:00",61048,6.915,49.23,6.987,1.176,8.17,102.5235,5.74,6.928,48.01,0,110,13.41,6.51,11.2
"2010-04-27 00:54:30",61049,7.096,50.91,5.906,1.352,8.66,102.5235,5.74,6.92,48.35,0,110,13.41,6.51,12.9
"2010-04-27 00:55:00",61050,6.769,54.22,6.497,1.379,9.09,102.5238,5.741,6.995,48.45,0,110,13.41,6.51,16.2
"2010-04-27 00:55:30",61051,6.831,54.88,6.849,1.244,8.98,102.5241,5.742,6.947,48.42,0,110,13.41,6.51,16.9
"2010-04-27 00:56:00",61052,6.959,55.66,6.775,1.152,8.67,102.5255,5.745,7.017,48.38,0,110,13.42,6.52,17.7
"2010-04-27 00:56:30",61053,7.427,59,6.415,1.221,9.74,102.5352,5.77,6.995,48.16,0,110,13.42,6.54,21.0
"2010-04-27 00:57:00",61054,7.54,55.32,6.255,1.122,9.54,102.5382,5.778,7.017,48.05,0,110,13.41,6.55,17.3
"2010-04-27 00:57:30",61055,7.104,56.2,6.953,1.264,8.45,102.5434,5.791,6.99,48.48,0,110,13.41,6.56,18.2
"2010-04-27 00:58:00",61056,7.478,60.72,6.096,1.293,9.29,102.5459,5.797,7.025,48.69,0,110,13.41,6.57,22.7
"2010-04-27 00:58:30",61057,7.737,57.26,6.559,1.245,9.2,102.5512,5.811,6.981,48.35,0,110,13.41,6.58,19.3
"2010-04-27 00:59:00",61058,6.686,56.97,6.485,1.258,8.18,102.5509,5.81,7.01,48.17,0,110,13.41,6.58,19.0
"2010-04-27 00:59:30",61059,7.8,63.47,4.921,1.195,9.64,102.5574,5.827,7.008,48.17,0,110,13.41,6.60,25.5
"2010-04-27 01:00:00",61060,6.918,62.65,7.635,1.101,8.88,102.5557,5.822,6.967,48.22,0,110,13.41,6.59,24.7
"2010-04-27 01:00:30",61061,6.781,57.62,6.365,1.131,9.35,102.556,5.823,7.017,48.25,0,110,13.41,6.60,19.6
"2010-04-27 01:01:00",61062,6.399,49.89,6.874,1.364,8.36,102.5537,5.817,6.969,48.47,0,110,13.41,6.59,11.9
"2010-04-27 01:01:30",61063,6.438,54.51,6.08,1.376,8.36,102.5537,5.817,7.04,48.71,0,110,13.41,6.59,16.5
"2010-04-27 01:02:00",61064,6.598,50.54,7.099,1.189,7.692,102.5551,5.821,6.819,48.38,0,110,13.41,6.59,12.5
"2010-04-27 01:02:30",61065,6.434,50.63,8.43,1.233,8.11,102.5543,5.819,7.072,48.73,0,110,13.41,6.59,12.6
"2010-04-27 01:03:00",61066,7.478,53.73,6.441,1.264,8.83,102.5534,5.817,7.028,48.64,0,110,13.42,6.59,15.7
"2010-04-27 01:03:30",61067,7.927,60.12,5.303,1.188,9.94,102.5543,5.819,7.117,48.7,0,110,13.42,6.59,22.1
"2010-04-27 01:04:00",61068,8.21,58.32,6.352,1.046,9.11,102.5543,5.819,7.017,48.46,0,110,13.42,6.59,20.3
"2010-04-27 01:04:30",61069,5.943,52.49,2.073,0.481,6.452,102.5537,5.817,6.955,48.36,0,110,13.42,6.59,14.5
"2010-04-27 01:05:00",61070,7.394,57.2,7.177,1.35,8.48,102.5531,5.816,6.955,48.4,0,110,13.42,6.59,19.2
"2010-04-27 01:05:30",61071,6.961,59.81,8.1,1.192,9.01,102.5604,5.834,7.062,48.48,0,110,13.42,6.61,21.8
"2010-04-27 01:06:00",61072,7.403,57.1,5.906,1.182,9.26,102.5745,5.87,7.018,48.6,0,110,13.42,6.64,19.1
"2010-04-27 01:06:30",61073,7.65,58.86,5.989,1.066,10.2,102.5792,5.883,7.126,48.82,0,110,13.42,6.66,20.9
"2010-04-27 01:07:00",61074,7.439,56.11,6.035,1.185,8.9,102.5821,5.89,7.023,48.8,0,110,13.42,6.66,18.1
"2010-04-27 01:07:30",61075,5.727,50.69,1.787,0.598,6.209,102.5803,5.885,6.927,48.68,0,110,13.42,6.66,12.7
"2010-04-27 01:08:00",61076,7.295,55.17,6.164,1.399,8.13,102.5792,5.882,7.051,48.72,0,110,13.42,6.66,17.2
"2010-04-27 01:08:30",61077,7.946,55.63,5.166,1.191,9.51,102.5806,5.886,7.11,48.78,0,110,13.42,6.66,17.6
"2010-04-27 01:09:00",61078,7.894,56.71,6.479,1.222,9.25,102.5783,5.88,7.068,48.73,0,110,13.42,6.65,18.7
"2010-04-27 01:09:30",61079,7.966,59.12,6.816,0.794,9.91,102.5774,5.878,7.15,48.89,0,110,13.42,6.65,21.1
"2010-04-27 01:10:00",61080,8.18,58.28,7.792,1.27,9.47,102.5789,5.882,7.155,48.82,0,110,13.41,6.65,20.3
"2010-04-27 01:10:30",61081,7.212,55.27,5.797,1.267,7.554,102.5797,5.884,7.002,48.59,0,110,13.41,6.66,17.3
"2010-04-27 01:11:00",61082,7.171,56.93,6.79,1.252,8.62,102.5808,5.887,7.098,48.71,0,110,13.41,6.66,18.9
"2010-04-27 01:11:30",61083,7.226,58.77,6.559,1.266,9.33,102.5811,5.887,7.196,48.78,0,110,13.42,6.66,20.8
"2010-04-27 01:12:00",61084,8.22,59.39,4.272,0.847,10.55,102.5842,5.895,7.105,48.66,0,110,13.42,6.67,21.4
"2010-04-27 01:12:30",61085,8.18,58.27,5.467,1.084,10.16,102.5833,5.893,7.223,48.71,0,110,13.42,6.67,20.3
"2010-04-27 01:13:00",61086,7.27,52.83,8.26,1.264,9.01,102.5822,5.89,7.165,48.78,0,110,13.41,6.66,14.8
"2010-04-27 01:13:30",61087,6.75,47.68,6.272,1.199,8.45,102.5799,5.884,7.099,48.65,0,110,13.41,6.66,9.7
"2010-04-27 01:14:00",61088,6.85,48.85,6.165,1.248,7.956,102.5785,5.881,7.045,48.64,0,110,13.41,6.65,10.8
"2010-04-27 01:14:30",61089,6.895,52.69,6.236,1.261,8.38,102.5774,5.878,7.093,48.72,0,110,13.41,6.65,14.7
"2010-04-27 01:15:00",61090,7.715,59.44,5.722,1.273,10,102.5774,5.878,7.201,48.7,0,110,13.41,6.65,21.4
"2010-04-27 01:15:30",61091,8.69,58.06,6.839,1.065,9.73,102.578,5.879,7.179,48.63,0,110,13.41,6.65,20.1
"2010-04-27 01:16:00",61092,8.48,59.59,6.739,1.337,9.26,102.5771,5.877,7.151,48.58,0,110,13.41,6.65,21.6
"2010-04-27 01:16:30",61093,7.095,55.32,6.644,1.109,7.612,102.5766,5.876,7.043,47.95,0,110,13.41,6.65,17.3
"2010-04-27 01:17:00",61094,7.933,59.62,6.66,1.247,9.2,102.578,5.879,7.192,48.09,0,110,13.41,6.65,21.6
"2010-04-27 01:17:30",61095,8.19,60.63,6.39,1.074,9.8,102.5769,5.877,7.062,47.84,0,110,13.41,6.65,22.6
"2010-04-27 01:18:00",61096,8.7,60.08,6.066,0.973,10.28,102.569,5.856,7.184,48.05,0,110,13.41,6.63,22.1
"2010-04-27 01:18:30",61097,8.36,62.79,7.35,1.001,10.36,102.554,5.818,7.116,48.07,0,110,13.41,6.59,24.8
"2010-04-27 01:19:00",61098,8.76,58.74,5.164,1.25,10.2,102.5447,5.794,7.106,48.4,0,110,13.41,6.57,20.7
"2010-04-27 01:19:30",61099,8.66,54.37,7.798,1.174,8.82,102.5453,5.796,7.029,48.31,0,110,13.41,6.57,16.4
"2010-04-27 01:20:00",61100,8.11,57.46,7.307,1.253,9.03,102.5444,5.794,7.085,48.22,0,110,13.41,6.57,19.5
"2010-04-27 01:20:30",61101,8.51,60.49,5.306,1.165,10.32,102.545,5.795,7.126,48.64,0,110,13.42,6.57,22.5
"2010-04-27 01:21:00",61102,8.16,60.33,5.617,1.147,10.03,102.5394,5.781,7.141,49.2,0,110,13.42,6.55,22.3
"2010-04-27 01:21:30",61103,8.73,58.71,6.536,1.215,9.66,102.5278,5.751,7.069,48.54,0,110,13.42,6.52,20.7
"2010-04-27 01:22:00",61104,8.23,54.58,5.518,1.368,9.08,102.5183,5.727,7.018,48.06,0,110,13.42,6.50,16.6
"2010-04-27 01:22:30",61105,8.16,52.64,6.472,1.125,8.87,102.5186,5.728,6.991,47.76,0,110,13.42,6.50,14.6
"2010-04-27 01:23:00",61106,8.36,52.99,5.971,1.209,9.81,102.5192,5.729,7.039,47.83,0,109.9,13.42,6.50,15.0
"2010-04-27 01:23:30",61107,8.69,59.96,6.166,1.218,9.86,102.5199,5.731,7.066,48.24,0,110,13.42,6.50,22.0
"2010-04-27 01:24:00",61108,9.19,63.99,4.789,0.967,10.98,102.5002,5.681,7.067,48.76,0,110,13.42,6.45,26.0
"2010-04-27 01:24:30",61109,7.883,59.98,8.17,1.196,8.76,102.4934,5.663,6.977,49.19,0,110,13.42,6.44,22.0
"2010-04-27 01:25:00",61110,9.01,62.78,5.55,1.186,9.92,102.4954,5.668,6.923,49.23,0,110,13.42,6.44,24.8
"2010-04-27 01:25:30",61111,8.06,57.97,5.809,1.36,8.7,102.4978,5.674,6.899,48.7,0,110,13.43,6.45,20.0
"2010-04-27 01:26:00",61112,8.73,57.29,6.362,1.158,10.23,102.4998,5.68,6.988,49.23,0,110,13.43,6.45,19.3
"2010-04-27 01:26:30",61113,9.22,61.51,6.017,1.066,10.2,102.5024,5.686,6.979,49,0,110,13.43,6.46,23.5
"2010-04-27 01:27:00",61114,9.15,60.59,5.158,0.942,10.49,102.495,5.667,6.952,49.11,0,110,13.43,6.44,22.6
"2010-04-27 01:27:30",61115,8.85,60.46,5.858,1.223,10,102.4835,5.638,6.929,49.17,0,110,13.43,6.41,22.5
"2010-04-27 01:28:00",61116,9.1,61.08,5.548,1.118,9.91,102.4734,5.612,6.883,49.38,0,110,13.43,6.38,23.1
"2010-04-27 01:28:30",61117,8.37,52.74,6.208,1.066,8.02,102.474,5.614,6.702,49.55,0,110,13.43,6.39,14.7
"2010-04-27 01:29:00",61118,9.11,57.32,5.731,1.147,10.07,102.474,5.614,6.93,50.2,0,110,13.43,6.39,19.3
"2010-04-27 01:29:30",61119,9.14,59.14,6.133,1.141,10.2,102.4743,5.614,6.866,50.34,0,110,13.43,6.39,21.1
"2010-04-27 01:30:00",61120,9.45,65.27,4.15,0.739,10.65,102.4743,5.614,6.928,50.57,0,110,13.42,6.39,27.3
"2010-04-27 01:30:30",61121,7.33,60.72,6.647,1.17,8.22,102.4701,5.604,6.804,50.51,0,110,13.42,6.38,22.7
"2010-04-27 01:31:00",61122,8.13,63.54,6.516,1.176,9.9,102.4641,5.588,6.827,50.54,0,110,13.42,6.36,25.5
"2010-04-27 01:31:30",61123,7.406,61.63,6.142,1.4,8.86,102.4525,5.559,6.642,50.47,0,110,13.42,6.33,23.6
"2010-04-27 01:32:00",61124,7.799,63.3,4.631,1.11,10.16,102.4426,5.534,6.832,50.89,0,110,13.42,6.30,25.3
"2010-04-27 01:32:30",61125,8.03,57.34,7.373,1.207,9.3,102.4407,5.529,6.765,50.7,0,110,13.43,6.30,19.3
"2010-04-27 01:33:00",61126,8.04,61.5,6.941,1.182,9.78,102.4407,5.529,6.845,50.74,0,110,13.42,6.30,23.5
"2010-04-27 01:33:30",61127,7.638,60.52,5.268,1.053,8.33,102.4407,5.529,6.677,50.6,0,110,13.43,6.30,22.5
"2010-04-27 01:34:00",61128,8.39,70.81,6.375,1.205,10.08,102.4407,5.529,6.809,49.88,0,110,13.43,6.30,32.8
"2010-04-27 01:34:30",61129,7.192,64.76,4.803,1.093,7.636,102.4407,5.529,6.696,49.57,0,110,13.43,6.30,26.8
"2010-04-27 01:35:00",61130,9.05,70.34,3.844,0.765,11.07,102.4393,5.525,6.849,49.98,0,110,13.43,6.30,32.3
"2010-04-27 01:35:30",61131,9.21,62.82,6.89,1.127,9.73,102.4339,5.511,6.754,49.79,0,110,13.43,6.28,24.8
"2010-04-27 01:36:00",61132,9.4,61.23,5.752,0.957,10.21,102.422,5.481,6.759,49.69,0,110,13.43,6.25,23.2
"2010-04-27 01:36:30",61133,9.36,63.38,6.918,1.163,9.68,102.4082,5.446,6.714,49.82,0,110,13.43,6.22,25.4
"2010-04-27 01:37:00",61134,8.54,60.83,6.565,1.203,9.85,102.4068,5.442,6.749,50.05,0,110,13.43,6.21,22.8
"2010-04-27 01:37:30",61135,9.48,61.91,7.155,1.112,10.14,102.4068,5.442,6.725,49.97,0,109.9,13.44,6.21,23.9
"2010-04-27 01:38:00",61136,10.17,57.06,4.262,0.888,10.66,102.4068,5.442,6.781,50.53,0,109.9,13.44,6.21,19.1
"2010-04-27 01:38:30",61137,8.92,54.49,7.49,1.091,9.66,102.4068,5.442,6.707,50.6,0,109.9,13.44,6.21,16.5
"2010-04-27 01:39:00",61138,8.78,60.05,6.041,1.124,10.06,102.4071,5.443,6.734,50.52,0,109.9,13.44,6.21,22.0
"2010-04-27 01:39:30",61139,8.92,61.18,7.836,1.058,10.07,102.4028,5.432,6.685,50.37,0,109.9,13.44,6.20,23.2
"2010-04-27 01:40:00",61140,8.78,63.51,6.253,1.196,9.86,102.3967,5.416,6.675,50.02,0,109.9,13.44,6.19,25.5
"2010-04-27 01:40:30",61141,8.47,62.49,6.874,1.196,9.82,102.3851,5.387,6.676,49.82,0,109.9,13.44,6.16,24.5
"2010-04-27 01:41:00",61142,8.84,52.97,6.281,1.089,9.86,102.3801,5.374,6.673,50.46,0,109.9,13.44,6.14,15.0
"2010-04-27 01:41:30",61143,8.69,48.79,6.401,1.158,9.52,102.3772,5.367,6.573,50.83,0,109.9,13.44,6.14,10.8
"2010-04-27 01:42:00",61144,8.75,48.49,6.004,1.426,9.05,102.3792,5.372,6.667,51.29,0,109.9,13.44,6.14,10.5
"2010-04-27 01:42:30",61145,9.13,54.43,6.017,1.2,10.35,102.3836,5.383,6.657,51.35,0,109.9,13.44,6.15,16.4
"2010-04-27 01:43:00",61146,9.28,56.52,5.038,1.046,10.32,102.3844,5.385,6.723,51.64,0,109.9,13.44,6.16,18.5
"2010-04-27 01:43:30",61147,9.02,58.01,7.308,1.23,10,102.3879,5.394,6.656,51.86,0,109.9,13.44,6.16,20.0
"2010-04-27 01:44:00",61148,8.99,60.95,5.621,1.108,9.71,102.3905,5.401,6.634,51.41,0,109.9,13.44,6.17,23.0
"2010-04-27 01:44:30",61149,8.85,56.66,6.259,1.208,9.13,102.3934,5.408,6.556,51.63,0,109.9,13.44,6.18,18.7
"2010-04-27 01:45:00",61150,9.54,58.79,5.774,1.085,9.86,102.3921,5.404,6.575,51.79,0,109.9,13.44,6.18,20.8
"2010-04-27 01:45:30",61151,9.18,59.23,5.204,1.1,10.47,102.3864,5.39,6.675,52.15,0,109.9,13.44,6.16,21.2
"2010-04-27 01:46:00",61152,9.44,61.11,7.216,1.326,10.44,102.3845,5.385,6.647,52.17,0,109.9,13.44,6.16,23.1
"2010-04-27 01:46:30",61153,9.82,54.95,6.876,0.965,9.94,102.3829,5.381,6.627,52.3,0,109.9,13.44,6.15,17.0
"2010-04-27 01:47:00",61154,10.37,57.61,4.788,1.072,10.15,102.3821,5.379,6.625,53.17,0,109.9,13.44,6.15,19.6
"2010-04-27 01:47:30",61155,9.53,49.84,4.372,1.241,8.94,102.3716,5.352,6.509,53.46,0,109.9,13.44,6.12,11.8
"2010-04-27 01:48:00",61156,9.58,49.59,7.229,1.367,9.38,102.3711,5.351,6.611,54.16,0,109.9,13.44,6.12,11.6
"2010-04-27 01:48:30",61157,10.1,52.93,5.084,0.928,10.39,102.3728,5.355,6.638,54.61,0,109.9,13.44,6.13,14.9
"2010-04-27 01:49:00",61158,10.37,53.59,5.156,0.946,10.41,102.3692,5.346,6.644,54.64,0,109.9,13.44,6.12,15.6
"2010-04-27 01:49:30",61159,10.06,52.05,6.577,1.174,9.93,102.3468,5.289,6.571,54.48,0,109.9,13.44,6.06,14.0
"2010-04-27 01:50:00",61160,10.6,53.16,3.873,0.676,10.5,102.3398,5.271,6.605,54.36,0,109.9,13.44,6.04,15.2
"2010-04-27 01:50:30",61161,10.35,50.28,4.219,0.972,10.24,102.3395,5.27,6.524,53.73,0,109.9,13.44,6.04,12.3
"2010-04-27 01:51:00",61162,9.46,44.55,6.33,1.136,9.07,102.3175,5.214,6.521,53.7,0,109.9,13.44,5.98,6.5
"2010-04-27 01:51:30",61163,10.6,48.08,5.05,1.021,9.38,102.3059,5.184,6.399,53.91,0,109.9,13.44,5.95,10.1
"2010-04-27 01:52:00",61164,10.99,51.81,3.805,0.667,10.61,102.3047,5.181,6.454,54.14,0,109.9,13.44,5.95,13.8
"2010-04-27 01:52:30",61165,10.53,48.81,5.738,1.225,9.81,102.2793,5.116,6.434,54.22,0,109.9,13.44,5.89,10.8
"2010-04-27 01:53:00",61166,10.68,49.13,4.898,1.06,10.56,102.272,5.098,6.448,54.26,0,109.9,13.45,5.87,11.1
"2010-04-27 01:53:30",61167,11.25,51.14,4.253,0.493,10.39,102.2705,5.094,6.464,54.44,0,109.9,13.45,5.86,13.1